Time,TemperatureF,DewpointF,PressureIn,WindDirection,WindDirectionDegrees,WindSpeedMPH,WindSpeedGustMPH,Humidity,HourlyPrecipIn,Conditions,Clouds,dailyrainin,SolarRadiationWatts/m^2,SoftwareType,DateUTC
2013-11-16 00:02:00,59.2,58.6,30.14,NW,306,0.0,0.0,98,0.00,,,0.00,0.0,meteohub,2013-11-16 05:02:00,
2013-11-16 00:03:00,59.2,58.6,30.14,NW,306,0.0,0.0,98,0.00,,,0.00,0.0,meteohub,2013-11-16 05:03:00,
2013-11-16 00:07:00,59.4,58.8,30.14,NW,306,0.0,0.0,98,0.00,,,0.00,0.0,meteohub,2013-11-16 05:07:00,
2013-11-16 00:12:00,59.2,58.6,30.14,NW,306,0.0,1.0,98,0.00,,,0.00,0.0,meteohub,2013-11-16 05:12:00,
2013-11-16 00:15:00,59.2,58.6,30.14,NW,306,0.0,1.0,98,0.00,,,0.00,0.0,meteohub,2013-11-16 05:15:00,
2013-11-16 00:18:00,59.2,58.6,30.14,NW,306,0.0,1.0,98,0.00,,,0.00,0.0,meteohub,2013-11-16 05:18:00,
2013-11-16 00:25:00,59.2,58.6,30.14,NW,306,0.0,0.0,98,0.00,,,0.00,0.0,meteohub,2013-11-16 05:25:00,
2013-11-16 00:31:00,59.2,58.6,30.13,NW,306,0.0,0.0,98,0.00,,,0.00,0.0,meteohub,2013-11-16 05:31:00,
2013-11-16 00:37:00,59.0,59.0,30.14,NW,306,0.0,1.0,100,0.00,,,0.00,0.0,meteohub,2013-11-16 05:37:00,
2013-11-16 00:42:00,59.0,58.5,30.13,NW,306,0.0,1.0,98,0.00,,,0.00,0.0,meteohub,2013-11-16 05:42:00,
2013-11-16 00:47:00,58.8,58.3,30.14,NW,306,0.0,0.0,98,0.00,,,0.00,0.0,meteohub,2013-11-16 05:47:00,
2013-11-16 00:52:00,58.8,58.3,30.13,NW,306,0.0,0.0,98,0.00,,,0.00,0.0,meteohub,2013-11-16 05:52:00,
2013-11-16 00:57:00,58.6,58.1,30.13,NW,306,0.0,0.0,98,0.00,,,0.00,0.0,meteohub,2013-11-16 05:57:00,
2013-11-16 01:02:00,58.6,58.1,30.13,NW,306,0.0,0.0,98,0.00,,,0.00,0.0,meteohub,2013-11-16 06:02:00,
2013-11-16 01:07:00,58.6,58.1,30.13,NW,306,0.0,1.0,98,0.00,,,0.00,0.0,meteohub,2013-11-16 06:07:00,
2013-11-16 01:12:00,58.5,57.9,30.13,NW,306,0.0,1.0,98,0.00,,,0.00,0.0,meteohub,2013-11-16 06:12:00,
2013-11-16 01:17:00,58.3,57.7,30.13,NW,306,0.0,1.0,98,0.00,,,0.00,0.0,meteohub,2013-11-16 06:17:00,
2013-11-16 01:22:00,58.1,57.6,30.13,NW,306,0.0,1.0,98,0.00,,,0.00,0.0,meteohub,2013-11-16 06:22:00,
2013-11-16 01:27:00,57.9,57.4,30.12,NW,306,0.0,1.0,98,0.00,,,0.00,0.0,meteohub,2013-11-16 06:27:00,
2013-11-16 01:32:00,57.7,57.2,30.13,NW,306,0.0,0.0,98,0.00,,,0.00,0.0,meteohub,2013-11-16 06:32:00,
2013-11-16 01:37:00,57.7,57.2,30.12,NW,306,0.0,0.0,98,0.00,,,0.00,0.0,meteohub,2013-11-16 06:37:00,
2013-11-16 01:42:00,57.6,57.0,30.13,NW,306,0.0,0.0,98,0.00,,,0.00,0.0,meteohub,2013-11-16 06:42:00,
2013-11-16 01:47:00,57.6,57.0,30.12,NW,306,0.0,0.0,98,0.00,,,0.00,0.0,meteohub,2013-11-16 06:47:00,
2013-11-16 01:52:00,57.4,56.8,30.12,NW,306,0.0,0.0,98,0.00,,,0.00,0.0,meteohub,2013-11-16 06:52:00,
2013-11-16 01:57:00,57.2,56.7,30.12,NW,306,0.0,0.0,98,0.00,,,0.00,0.0,meteohub,2013-11-16 06:57:00,
2013-11-16 02:02:00,57.0,56.5,30.12,NW,306,0.0,0.0,98,0.00,,,0.00,0.0,meteohub,2013-11-16 07:02:00,
2013-11-16 02:07:00,57.0,56.5,30.13,NW,306,0.0,0.0,98,0.00,,,0.00,0.0,meteohub,2013-11-16 07:07:00,
2013-11-16 02:12:00,57.0,56.5,30.13,NW,306,0.0,0.0,98,0.00,,,0.00,0.0,meteohub,2013-11-16 07:12:00,
2013-11-16 02:17:00,56.8,56.3,30.13,NW,306,0.0,0.0,98,0.00,,,0.00,0.0,meteohub,2013-11-16 07:17:00,
2013-11-16 02:22:00,57.0,56.5,30.13,NW,306,0.0,0.0,98,0.00,,,0.00,0.0,meteohub,2013-11-16 07:22:00,
2013-11-16 02:27:00,57.0,56.5,30.13,NW,306,0.0,0.0,98,0.00,,,0.00,0.0,meteohub,2013-11-16 07:27:00,
2013-11-16 02:32:00,57.0,56.5,30.12,NW,306,0.0,0.0,98,0.00,,,0.00,0.0,meteohub,2013-11-16 07:32:00,
2013-11-16 02:37:00,57.4,56.8,30.12,NW,306,0.0,0.0,98,0.00,,,0.00,0.0,meteohub,2013-11-16 07:37:00,
2013-11-16 02:42:00,57.6,57.0,30.12,NW,306,0.0,0.0,98,0.00,,,0.00,0.0,meteohub,2013-11-16 07:42:00,
2013-11-16 02:47:00,57.7,57.2,30.12,NW,306,0.0,0.0,98,0.00,,,0.00,0.0,meteohub,2013-11-16 07:47:00,
2013-11-16 02:52:00,57.9,57.4,30.12,NW,306,1.0,0.0,98,0.00,,,0.00,0.0,meteohub,2013-11-16 07:52:00,
2013-11-16 02:57:00,58.3,57.7,30.12,NW,306,0.0,0.0,98,0.00,,,0.00,0.0,meteohub,2013-11-16 07:57:00,
2013-11-16 03:02:00,58.3,57.7,30.13,NW,312,0.0,2.0,98,0.00,,,0.00,0.0,meteohub,2013-11-16 08:02:00,
2013-11-16 03:07:00,58.5,57.9,30.13,East,80,1.0,2.0,98,0.00,,,0.00,0.0,meteohub,2013-11-16 08:07:00,
2013-11-16 03:12:00,58.5,57.9,30.12,ENE,72,0.0,2.0,98,0.00,,,0.00,0.0,meteohub,2013-11-16 08:12:00,
2013-11-16 03:17:00,58.5,57.9,30.12,NNE,19,1.0,2.0,98,0.00,,,0.00,0.0,meteohub,2013-11-16 08:17:00,
2013-11-16 03:22:00,58.5,57.9,30.12,NNE,20,0.0,2.0,98,0.00,,,0.00,0.0,meteohub,2013-11-16 08:22:00,
2013-11-16 03:27:00,58.3,57.7,30.12,NNE,20,0.0,2.0,98,0.00,,,0.00,0.0,meteohub,2013-11-16 08:27:00,
2013-11-16 03:32:00,58.1,57.6,30.12,NNE,20,1.0,2.0,98,0.00,,,0.00,0.0,meteohub,2013-11-16 08:32:00,
2013-11-16 03:37:00,58.1,57.6,30.12,North,0,2.0,2.0,98,0.00,,,0.00,0.0,meteohub,2013-11-16 08:37:00,
2013-11-16 03:42:00,57.9,57.4,30.12,NNE,32,0.0,1.0,98,0.00,,,0.00,0.0,meteohub,2013-11-16 08:42:00,
2013-11-16 03:47:00,57.9,57.4,30.13,NNE,32,0.0,1.0,98,0.00,,,0.00,0.0,meteohub,2013-11-16 08:47:00,
2013-11-16 03:52:00,57.9,57.4,30.13,NNE,32,0.0,3.0,98,0.00,,,0.00,0.0,meteohub,2013-11-16 08:52:00,
2013-11-16 03:57:00,57.9,57.4,30.13,NNE,32,0.0,3.0,98,0.00,,,0.00,0.0,meteohub,2013-11-16 08:57:00,
2013-11-16 04:02:00,57.7,57.2,30.13,NNE,32,0.0,1.0,98,0.00,,,0.00,0.0,meteohub,2013-11-16 09:02:00,
2013-11-16 04:07:00,57.7,57.2,30.13,NNE,32,1.0,1.0,98,0.00,,,0.00,0.0,meteohub,2013-11-16 09:07:00,
2013-11-16 04:12:00,57.7,57.2,30.13,NNE,32,0.0,1.0,98,0.00,,,0.00,0.0,meteohub,2013-11-16 09:12:00,
2013-11-16 04:17:00,57.7,57.2,30.14,NNE,32,0.0,1.0,98,0.00,,,0.00,0.0,meteohub,2013-11-16 09:17:00,
2013-11-16 04:22:00,57.7,57.2,30.14,NNE,32,0.0,1.0,98,0.00,,,0.00,0.0,meteohub,2013-11-16 09:22:00,
2013-11-16 04:27:00,57.6,57.0,30.14,NNE,32,0.0,1.0,98,0.00,,,0.00,0.0,meteohub,2013-11-16 09:27:00,
2013-11-16 04:32:00,57.6,57.0,30.14,NNE,32,0.0,1.0,98,0.00,,,0.00,0.0,meteohub,2013-11-16 09:32:00,
2013-11-16 04:37:00,57.6,57.0,30.15,NNE,32,0.0,1.0,98,0.00,,,0.00,0.0,meteohub,2013-11-16 09:37:00,
2013-11-16 04:42:00,57.6,57.0,30.14,NNE,32,0.0,1.0,98,0.00,,,0.00,0.0,meteohub,2013-11-16 09:42:00,
2013-11-16 04:47:00,57.4,56.8,30.14,NNE,32,0.0,1.0,98,0.00,,,0.00,0.0,meteohub,2013-11-16 09:47:00,
2013-11-16 04:52:00,57.4,56.8,30.14,NNE,32,0.0,1.0,98,0.00,,,0.00,0.0,meteohub,2013-11-16 09:52:00,
2013-11-16 04:58:00,57.2,56.7,30.14,NNE,32,0.0,1.0,98,0.00,,,0.00,0.0,meteohub,2013-11-16 09:58:00,
2013-11-16 05:04:00,57.0,56.5,30.14,NNE,32,0.0,1.0,98,0.00,,,0.00,0.0,meteohub,2013-11-16 10:04:00,
2013-11-16 05:10:00,57.0,56.5,30.14,NNE,32,0.0,0.0,98,0.00,,,0.00,0.0,meteohub,2013-11-16 10:10:00,
2013-11-16 05:16:00,56.8,56.3,30.15,NNE,32,0.0,0.0,98,0.00,,,0.00,0.0,meteohub,2013-11-16 10:16:00,
2013-11-16 05:22:00,56.8,56.3,30.15,NNE,32,0.0,0.0,98,0.00,,,0.00,0.0,meteohub,2013-11-16 10:22:00,
2013-11-16 05:27:00,56.7,56.1,30.15,NNE,32,0.0,0.0,98,0.00,,,0.00,0.0,meteohub,2013-11-16 10:27:00,
2013-11-16 05:32:00,56.7,56.1,30.14,NNE,32,0.0,0.0,98,0.00,,,0.01,0.0,meteohub,2013-11-16 10:32:00,
2013-11-16 05:37:00,56.5,55.9,30.14,NNE,32,0.0,0.0,98,0.01,,,0.01,0.0,meteohub,2013-11-16 10:37:00,
2013-11-16 05:42:00,56.5,55.9,30.14,NNE,32,0.0,0.0,98,0.01,,,0.01,0.0,meteohub,2013-11-16 10:42:00,
2013-11-16 05:47:00,56.3,55.8,30.14,NNE,32,0.0,0.0,98,0.01,,,0.01,0.0,meteohub,2013-11-16 10:47:00,
2013-11-16 05:52:00,56.1,55.6,30.14,NNE,32,0.0,0.0,98,0.01,,,0.01,0.0,meteohub,2013-11-16 10:52:00,
2013-11-16 05:57:00,56.1,55.6,30.14,NNE,32,0.0,0.0,98,0.01,,,0.01,0.0,meteohub,2013-11-16 10:57:00,
2013-11-16 06:02:00,55.9,55.4,30.15,NNE,32,0.0,0.0,98,0.01,,,0.01,0.0,meteohub,2013-11-16 11:02:00,
2013-11-16 06:07:00,55.9,55.4,30.15,NNE,32,0.0,0.0,98,0.01,,,0.01,0.0,meteohub,2013-11-16 11:07:00,
2013-11-16 06:12:00,55.9,55.4,30.15,NNE,32,0.0,0.0,98,0.01,,,0.01,0.0,meteohub,2013-11-16 11:12:00,
2013-11-16 06:17:00,55.8,55.2,30.15,NNE,32,0.0,0.0,98,0.01,,,0.01,0.0,meteohub,2013-11-16 11:17:00,
2013-11-16 06:22:00,55.8,55.2,30.15,NNE,32,0.0,0.0,98,0.01,,,0.01,0.0,meteohub,2013-11-16 11:22:00,
2013-11-16 06:27:00,55.6,55.0,30.15,NNE,32,0.0,0.0,98,0.01,,,0.01,0.0,meteohub,2013-11-16 11:27:00,
2013-11-16 06:32:00,55.6,55.0,30.15,NNE,32,0.0,0.0,98,0.01,,,0.01,0.0,meteohub,2013-11-16 11:32:00,
2013-11-16 06:37:00,55.6,55.0,30.16,NNE,32,0.0,1.0,98,0.00,,,0.01,0.0,meteohub,2013-11-16 11:37:00,
2013-11-16 06:42:00,55.6,55.0,30.15,NNE,32,0.0,1.0,98,0.00,,,0.01,0.0,meteohub,2013-11-16 11:42:00,
2013-11-16 06:47:00,55.6,55.0,30.16,NNE,32,0.0,1.0,98,0.00,,,0.01,0.0,meteohub,2013-11-16 11:47:00,
2013-11-16 06:52:00,55.6,55.0,30.16,NNE,32,0.0,1.0,98,0.00,,,0.01,0.0,meteohub,2013-11-16 11:52:00,
2013-11-16 06:57:00,55.6,55.0,30.16,NNE,32,0.0,1.0,98,0.00,,,0.01,0.0,meteohub,2013-11-16 11:57:00,
2013-11-16 07:02:00,55.8,55.2,30.16,NNE,32,0.0,1.0,98,0.00,,,0.01,5.0,meteohub,2013-11-16 12:02:00,
2013-11-16 07:07:00,55.8,55.2,30.16,NNE,26,1.0,1.0,98,0.00,,,0.01,7.0,meteohub,2013-11-16 12:07:00,
2013-11-16 07:12:00,55.9,55.4,30.16,NNE,26,0.0,2.0,98,0.00,,,0.01,11.0,meteohub,2013-11-16 12:12:00,
2013-11-16 07:17:00,55.9,55.4,30.17,NNE,26,1.0,2.0,98,0.00,,,0.01,14.0,meteohub,2013-11-16 12:17:00,
2013-11-16 07:22:00,56.1,55.6,30.17,NNE,26,0.0,1.0,98,0.00,,,0.01,19.0,meteohub,2013-11-16 12:22:00,
2013-11-16 07:27:00,56.1,55.6,30.17,NNE,26,1.0,1.0,98,0.00,,,0.01,23.0,meteohub,2013-11-16 12:27:00,
2013-11-16 07:32:00,56.3,55.8,30.17,NNE,26,0.0,1.0,98,0.00,,,0.01,28.0,meteohub,2013-11-16 12:32:00,
2013-11-16 07:37:00,56.5,55.9,30.17,NNE,26,0.0,2.0,98,0.00,,,0.01,32.0,meteohub,2013-11-16 12:37:00,
2013-11-16 07:42:00,56.7,56.1,30.17,NE,46,1.0,2.0,98,0.00,,,0.01,42.0,meteohub,2013-11-16 12:42:00,
2013-11-16 07:47:00,56.8,56.3,30.18,NE,41,0.0,2.0,98,0.00,,,0.01,46.0,meteohub,2013-11-16 12:47:00,
2013-11-16 07:52:00,56.8,56.3,30.17,NE,40,0.0,2.0,98,0.00,,,0.01,49.0,meteohub,2013-11-16 12:52:00,
2013-11-16 07:57:00,57.0,56.5,30.17,North,9,1.0,2.0,98,0.00,,,0.01,56.0,meteohub,2013-11-16 12:57:00,
2013-11-16 08:02:00,57.4,56.8,30.17,North,9,0.0,3.0,98,0.00,,,0.01,56.0,meteohub,2013-11-16 13:02:00,
2013-11-16 08:07:00,57.6,57.0,30.18,NE,52,0.0,3.0,98,0.00,,,0.01,63.0,meteohub,2013-11-16 13:07:00,
2013-11-16 08:12:00,57.7,57.2,30.18,ENE,63,0.0,3.0,98,0.00,,,0.01,70.0,meteohub,2013-11-16 13:12:00,
2013-11-16 08:17:00,57.9,57.4,30.17,ENE,58,1.0,2.0,98,0.00,,,0.01,76.0,meteohub,2013-11-16 13:17:00,
2013-11-16 08:22:00,58.1,57.6,30.18,ENE,58,0.0,2.0,98,0.00,,,0.01,84.0,meteohub,2013-11-16 13:22:00,
2013-11-16 08:27:00,58.5,57.9,30.18,ENE,58,0.0,2.0,98,0.00,,,0.01,95.0,meteohub,2013-11-16 13:27:00,
2013-11-16 08:32:00,59.0,58.5,30.18,ENE,58,0.0,1.0,98,0.00,,,0.01,95.0,meteohub,2013-11-16 13:32:00,
2013-11-16 08:37:00,59.0,58.5,30.18,ENE,58,1.0,1.0,98,0.00,,,0.01,100.0,meteohub,2013-11-16 13:37:00,
2013-11-16 08:42:00,59.4,58.8,30.18,NE,55,1.0,2.0,98,0.00,,,0.01,105.0,meteohub,2013-11-16 13:42:00,
2013-11-16 08:47:00,59.5,59.0,30.18,ENE,58,0.0,2.0,98,0.00,,,0.01,100.0,meteohub,2013-11-16 13:47:00,
2013-11-16 08:52:00,60.1,59.5,30.19,ENE,59,0.0,2.0,98,0.00,,,0.01,105.0,meteohub,2013-11-16 13:52:00,
2013-11-16 08:57:00,60.3,59.7,30.18,ENE,58,0.0,1.0,98,0.00,,,0.01,109.0,meteohub,2013-11-16 13:57:00,
2013-11-16 09:02:00,60.4,59.9,30.18,NE,49,1.0,1.0,98,0.00,,,0.01,104.0,meteohub,2013-11-16 14:02:00,
2013-11-16 09:07:00,61.0,60.4,30.18,East,82,1.0,1.0,98,0.00,,,0.01,113.0,meteohub,2013-11-16 14:07:00,
2013-11-16 09:12:00,61.3,60.8,30.18,North,0,2.0,4.0,98,0.00,,,0.01,121.0,meteohub,2013-11-16 14:12:00,
2013-11-16 09:17:00,61.5,61.0,30.19,ENE,61,3.0,4.0,98,0.00,,,0.01,121.0,meteohub,2013-11-16 14:17:00,
2013-11-16 09:22:00,62.1,61.5,30.18,NE,54,0.0,4.0,98,0.00,,,0.01,132.0,meteohub,2013-11-16 14:22:00,
2013-11-16 09:27:00,62.2,61.7,30.19,ENE,57,1.0,4.0,98,0.00,,,0.01,162.0,meteohub,2013-11-16 14:27:00,
2013-11-16 09:32:00,62.4,61.9,30.19,ENE,57,3.0,3.0,98,0.00,,,0.01,163.0,meteohub,2013-11-16 14:32:00,
2013-11-16 09:37:00,62.8,62.2,30.19,NE,55,3.0,3.0,98,0.00,,,0.01,141.0,meteohub,2013-11-16 14:37:00,
2013-11-16 09:42:00,62.8,62.2,30.19,ENE,57,0.0,4.0,98,0.00,,,0.01,153.0,meteohub,2013-11-16 14:42:00,
2013-11-16 09:47:00,63.1,62.6,30.19,WSW,242,2.0,4.0,98,0.00,,,0.01,181.0,meteohub,2013-11-16 14:47:00,
2013-11-16 09:52:00,63.3,62.8,30.19,SE,136,2.0,4.0,98,0.00,,,0.01,169.0,meteohub,2013-11-16 14:52:00,
2013-11-16 09:57:00,63.5,63.0,30.19,ENE,57,1.0,5.0,98,0.00,,,0.01,188.0,meteohub,2013-11-16 14:57:00,
2013-11-16 10:02:00,63.9,63.3,30.19,ENE,69,0.0,5.0,98,0.00,,,0.01,218.0,meteohub,2013-11-16 15:02:00,
2013-11-16 10:07:00,63.9,63.3,30.19,SE,146,1.0,5.0,98,0.00,,,0.01,185.0,meteohub,2013-11-16 15:07:00,
2013-11-16 10:12:00,64.2,63.7,30.18,ENE,78,0.0,3.0,98,0.00,,,0.01,213.0,meteohub,2013-11-16 15:12:00,
2013-11-16 10:17:00,64.8,64.2,30.19,SSE,155,1.0,3.0,98,0.00,,,0.01,287.0,meteohub,2013-11-16 15:17:00,
2013-11-16 10:22:00,64.9,64.4,30.18,NE,43,2.0,3.0,98,0.00,,,0.01,364.0,meteohub,2013-11-16 15:22:00,
2013-11-16 10:27:00,65.7,65.1,30.18,North,355,1.0,3.0,98,0.00,,,0.01,512.0,meteohub,2013-11-16 15:27:00,
2013-11-16 10:32:00,66.9,65.7,30.18,SSE,148,1.0,7.0,96,0.00,,,0.01,464.0,meteohub,2013-11-16 15:32:00,
2013-11-16 10:37:00,67.6,65.5,30.18,SE,129,1.0,7.0,93,0.00,,,0.01,476.0,meteohub,2013-11-16 15:37:00,
2013-11-16 10:42:00,68.2,65.1,30.18,SE,142,3.0,4.0,90,0.00,,,0.01,664.0,meteohub,2013-11-16 15:42:00,
2013-11-16 10:47:00,68.5,65.5,30.18,NE,39,0.0,4.0,90,0.00,,,0.01,613.0,meteohub,2013-11-16 15:47:00,
2013-11-16 10:52:00,69.3,65.8,30.18,NE,51,2.0,4.0,89,0.00,,,0.01,582.0,meteohub,2013-11-16 15:52:00,
2013-11-16 10:57:00,69.3,65.8,30.18,ESE,107,1.0,9.0,89,0.00,,,0.01,631.0,meteohub,2013-11-16 15:57:00,
2013-11-16 11:02:00,70.0,66.6,30.18,NE,44,1.0,9.0,89,0.00,,,0.01,659.0,meteohub,2013-11-16 16:02:00,
2013-11-16 11:07:00,70.7,66.6,30.17,SSE,166,2.0,9.0,87,0.00,,,0.01,652.0,meteohub,2013-11-16 16:07:00,
2013-11-16 11:12:00,71.4,66.7,30.17,South,180,2.0,5.0,85,0.00,,,0.01,691.0,meteohub,2013-11-16 16:12:00,
2013-11-16 11:17:00,72.0,66.6,30.17,NE,53,2.0,5.0,83,0.00,,,0.01,772.0,meteohub,2013-11-16 16:17:00,
2013-11-16 11:23:00,72.7,67.3,30.17,SSE,155,5.0,7.0,83,0.00,,,0.01,466.0,meteohub,2013-11-16 16:23:00,
2013-11-16 11:29:00,72.3,66.2,30.17,ENE,59,3.0,7.0,81,0.00,,,0.01,466.0,meteohub,2013-11-16 16:29:00,
2013-11-16 11:35:00,72.7,67.3,30.17,North,355,4.0,7.0,83,0.00,,,0.01,466.0,meteohub,2013-11-16 16:35:00,
2013-11-16 11:42:00,72.7,66.2,30.17,NE,45,1.0,5.0,80,0.00,,,0.01,294.0,meteohub,2013-11-16 16:42:00,
2013-11-16 11:47:00,72.9,66.4,30.16,NE,42,3.0,5.0,80,0.00,,,0.01,490.0,meteohub,2013-11-16 16:47:00,
2013-11-16 11:52:00,72.9,66.0,30.16,North,355,0.0,5.0,79,0.00,,,0.01,464.0,meteohub,2013-11-16 16:52:00,
2013-11-16 11:57:00,73.8,66.4,30.16,South,178,3.0,6.0,78,0.00,,,0.01,381.0,meteohub,2013-11-16 16:57:00,
2013-11-16 12:02:00,73.6,66.4,30.16,ESE,116,3.0,6.0,78,0.00,,,0.01,399.0,meteohub,2013-11-16 17:02:00,
2013-11-16 12:07:00,74.3,66.9,30.15,NE,34,2.0,6.0,78,0.00,,,0.01,763.0,meteohub,2013-11-16 17:07:00,
2013-11-16 12:12:00,74.7,66.2,30.15,ENE,59,2.0,4.0,75,0.00,,,0.01,751.0,meteohub,2013-11-16 17:12:00,
2013-11-16 12:17:00,75.4,66.9,30.15,NE,42,2.0,4.0,75,0.00,,,0.01,752.0,meteohub,2013-11-16 17:17:00,
2013-11-16 12:22:00,75.7,66.4,30.14,South,188,2.0,6.0,73,0.00,,,0.01,791.0,meteohub,2013-11-16 17:22:00,
2013-11-16 12:27:00,76.3,66.2,30.14,WNW,284,2.0,6.0,71,0.00,,,0.01,693.0,meteohub,2013-11-16 17:27:00,
2013-11-16 12:34:00,75.2,64.8,30.14,SE,143,2.0,6.0,70,0.00,,,0.01,489.0,meteohub,2013-11-16 17:34:00,
2013-11-16 12:40:00,75.0,64.9,30.14,NE,48,3.0,6.0,71,0.00,,,0.01,272.0,meteohub,2013-11-16 17:40:00,
2013-11-16 12:47:00,75.7,64.8,30.13,North,355,2.0,6.0,69,0.00,,,0.01,638.0,meteohub,2013-11-16 17:47:00,
2013-11-16 12:52:00,75.9,65.8,30.13,South,182,2.0,6.0,71,0.00,,,0.01,689.0,meteohub,2013-11-16 17:52:00,
2013-11-16 12:57:00,75.9,65.5,30.13,NE,49,0.0,6.0,70,0.00,,,0.01,707.0,meteohub,2013-11-16 17:57:00,
2013-11-16 13:02:00,74.8,64.8,30.13,South,175,3.0,6.0,71,0.00,,,0.01,318.0,meteohub,2013-11-16 18:02:00,
2013-11-16 13:07:00,74.7,65.1,30.13,East,97,1.0,6.0,72,0.00,,,0.01,506.0,meteohub,2013-11-16 18:07:00,
2013-11-16 13:12:00,75.0,64.9,30.13,ESE,115,1.0,4.0,71,0.00,,,0.01,294.0,meteohub,2013-11-16 18:12:00,
2013-11-16 13:17:00,74.8,66.0,30.13,ENE,76,0.0,4.0,74,0.00,,,0.01,348.0,meteohub,2013-11-16 18:17:00,
2013-11-16 13:22:00,75.0,64.9,30.13,NE,53,2.0,4.0,71,0.00,,,0.01,352.0,meteohub,2013-11-16 18:22:00,
2013-11-16 13:27:00,75.0,65.3,30.13,East,79,1.0,4.0,72,0.00,,,0.01,322.0,meteohub,2013-11-16 18:27:00,
2013-11-16 13:32:00,74.5,64.9,30.12,SE,142,2.0,5.0,72,0.00,,,0.01,306.0,meteohub,2013-11-16 18:32:00,
2013-11-16 13:37:00,75.4,65.3,30.12,NNE,33,1.0,5.0,71,0.00,,,0.01,728.0,meteohub,2013-11-16 18:37:00,
2013-11-16 13:42:00,75.9,64.6,30.12,ENE,69,1.0,4.0,68,0.00,,,0.01,287.0,meteohub,2013-11-16 18:42:00,
2013-11-16 13:47:00,75.0,64.6,30.12,NE,55,1.0,4.0,70,0.00,,,0.01,248.0,meteohub,2013-11-16 18:47:00,
2013-11-16 13:52:00,75.0,64.9,30.11,ESE,109,0.0,7.0,71,0.00,,,0.01,490.0,meteohub,2013-11-16 18:52:00,
2013-11-16 13:57:00,75.6,65.1,30.11,East,82,1.0,7.0,70,0.00,,,0.01,366.0,meteohub,2013-11-16 18:57:00,
2013-11-16 14:02:00,76.3,65.8,30.11,NE,53,2.0,5.0,70,0.00,,,0.01,726.0,meteohub,2013-11-16 19:02:00,
2013-11-16 14:07:00,76.3,65.3,30.11,SE,130,1.0,5.0,69,0.00,,,0.01,329.0,meteohub,2013-11-16 19:07:00,
2013-11-16 14:12:00,75.6,65.1,30.10,NE,43,1.0,6.0,70,0.00,,,0.01,192.0,meteohub,2013-11-16 19:12:00,
2013-11-16 14:17:00,75.0,64.9,30.10,NNE,28,1.0,6.0,71,0.00,,,0.01,246.0,meteohub,2013-11-16 19:17:00,
2013-11-16 14:22:00,74.7,65.5,30.10,NNE,19,2.0,6.0,73,0.00,,,0.01,207.0,meteohub,2013-11-16 19:22:00,
2013-11-16 14:27:00,74.5,65.3,30.10,NE,54,1.0,6.0,73,0.00,,,0.01,186.0,meteohub,2013-11-16 19:27:00,
2013-11-16 14:32:00,74.1,64.9,30.10,ENE,61,2.0,5.0,73,0.00,,,0.01,197.0,meteohub,2013-11-16 19:32:00,
2013-11-16 14:37:00,73.6,64.4,30.10,SE,126,1.0,5.0,73,0.00,,,0.01,160.0,meteohub,2013-11-16 19:37:00,
2013-11-16 14:42:00,73.8,64.6,30.10,NE,42,1.0,4.0,73,0.00,,,0.01,158.0,meteohub,2013-11-16 19:42:00,
2013-11-16 14:47:00,73.4,64.6,30.10,ENE,65,0.0,4.0,74,0.00,,,0.01,144.0,meteohub,2013-11-16 19:47:00,
2013-11-16 14:52:00,73.2,64.8,30.10,East,82,0.0,3.0,75,0.00,,,0.01,123.0,meteohub,2013-11-16 19:52:00,
2013-11-16 14:57:00,73.0,64.9,30.10,ENE,72,0.0,3.0,76,0.00,,,0.01,93.0,meteohub,2013-11-16 19:57:00,
2013-11-16 15:02:00,72.9,65.3,30.10,SSE,148,1.0,3.0,77,0.00,,,0.01,107.0,meteohub,2013-11-16 20:02:00,
2013-11-16 15:07:00,72.7,65.5,30.11,ESE,105,0.0,3.0,78,0.00,,,0.01,104.0,meteohub,2013-11-16 20:07:00,
2013-11-16 15:12:00,72.7,65.1,30.11,NE,41,3.0,3.0,77,0.00,,,0.01,90.0,meteohub,2013-11-16 20:12:00,
2013-11-16 15:17:00,72.3,65.1,30.11,NE,55,1.0,3.0,78,0.00,,,0.01,114.0,meteohub,2013-11-16 20:17:00,
2013-11-16 15:22:00,72.3,65.1,30.10,NE,39,0.0,4.0,78,0.00,,,0.01,121.0,meteohub,2013-11-16 20:22:00,
2013-11-16 15:27:00,72.3,65.1,30.10,NE,49,1.0,4.0,78,0.00,,,0.01,58.0,meteohub,2013-11-16 20:27:00,
2013-11-16 15:32:00,72.1,64.9,30.10,ENE,59,1.0,3.0,78,0.00,,,0.01,54.0,meteohub,2013-11-16 20:32:00,
2013-11-16 15:37:00,71.8,65.3,30.10,ENE,59,0.0,3.0,80,0.00,,,0.01,77.0,meteohub,2013-11-16 20:37:00,
2013-11-16 15:42:00,71.6,65.1,30.11,ENE,60,4.0,4.0,80,0.00,,,0.01,88.0,meteohub,2013-11-16 20:42:00,
2013-11-16 15:47:00,71.6,65.1,30.11,ENE,59,2.0,4.0,80,0.00,,,0.01,113.0,meteohub,2013-11-16 20:47:00,
2013-11-16 15:52:00,71.8,65.3,30.11,ENE,75,1.0,5.0,80,0.00,,,0.01,130.0,meteohub,2013-11-16 20:52:00,
2013-11-16 15:57:00,71.8,64.9,30.10,ENE,59,2.0,5.0,79,0.00,,,0.01,88.0,meteohub,2013-11-16 20:57:00,
2013-11-16 16:02:00,71.6,64.8,30.10,SSW,208,2.0,4.0,79,0.00,,,0.01,76.0,meteohub,2013-11-16 21:02:00,
2013-11-16 16:07:00,71.4,64.6,30.10,SW,236,2.0,4.0,79,0.00,,,0.01,100.0,meteohub,2013-11-16 21:07:00,
2013-11-16 16:12:00,71.2,64.4,30.10,NNW,339,0.0,5.0,79,0.00,,,0.01,54.0,meteohub,2013-11-16 21:12:00,
2013-11-16 16:17:00,71.1,64.2,30.10,ENE,74,0.0,5.0,79,0.00,,,0.01,62.0,meteohub,2013-11-16 21:17:00,
2013-11-16 16:23:00,70.9,64.0,30.10,NW,320,0.0,5.0,79,0.00,,,0.01,51.0,meteohub,2013-11-16 21:23:00,
2013-11-16 16:29:00,70.5,63.7,30.11,ENE,61,3.0,4.0,79,0.00,,,0.01,33.0,meteohub,2013-11-16 21:29:00,
2013-11-16 16:35:00,70.3,63.9,30.11,South,173,2.0,4.0,80,0.00,,,0.01,26.0,meteohub,2013-11-16 21:35:00,
2013-11-16 16:41:00,70.3,64.2,30.11,East,96,1.0,3.0,81,0.00,,,0.01,25.0,meteohub,2013-11-16 21:41:00,
2013-11-16 16:47:00,70.2,64.4,30.10,NE,49,0.0,3.0,82,0.00,,,0.01,19.0,meteohub,2013-11-16 21:47:00,
2013-11-16 16:52:00,70.0,64.6,30.11,SE,136,0.0,3.0,83,0.00,,,0.01,23.0,meteohub,2013-11-16 21:52:00,
2013-11-16 16:57:00,70.0,64.9,30.11,NE,44,0.0,3.0,84,0.00,,,0.01,21.0,meteohub,2013-11-16 21:57:00,
2013-11-16 17:02:00,69.8,64.8,30.10,NNE,33,1.0,2.0,84,0.00,,,0.01,21.0,meteohub,2013-11-16 22:02:00,
2013-11-16 17:07:00,69.6,64.6,30.10,NE,34,0.0,2.0,84,0.00,,,0.01,18.0,meteohub,2013-11-16 22:07:00,
2013-11-16 17:12:00,69.6,64.9,30.10,NNE,28,2.0,2.0,85,0.00,,,0.01,14.0,meteohub,2013-11-16 22:12:00,
2013-11-16 17:17:00,69.4,65.1,30.10,NE,49,2.0,2.0,86,0.00,,,0.01,11.0,meteohub,2013-11-16 22:17:00,
2013-11-16 17:22:00,69.4,65.1,30.10,ENE,59,0.0,3.0,86,0.00,,,0.01,7.0,meteohub,2013-11-16 22:22:00,
2013-11-16 17:27:00,69.3,64.9,30.10,ESE,111,0.0,3.0,86,0.00,,,0.01,0.0,meteohub,2013-11-16 22:27:00,
2013-11-16 17:34:00,69.1,65.1,30.10,East,101,2.0,4.0,87,0.00,,,0.01,0.0,meteohub,2013-11-16 22:34:00,
2013-11-16 17:40:00,68.9,64.9,30.11,East,94,0.0,2.0,87,0.00,,,0.01,0.0,meteohub,2013-11-16 22:40:00,
2013-11-16 17:46:00,68.7,64.9,30.11,East,97,0.0,2.0,88,0.00,,,0.01,0.0,meteohub,2013-11-16 22:46:00,
2013-11-16 17:52:00,68.5,64.8,30.10,ENE,58,0.0,2.0,88,0.00,,,0.01,0.0,meteohub,2013-11-16 22:52:00,
2013-11-16 17:57:00,68.5,64.8,30.10,ENE,74,0.0,2.0,88,0.00,,,0.01,0.0,meteohub,2013-11-16 22:57:00,
2013-11-16 18:02:00,68.5,65.1,30.11,ENE,74,0.0,2.0,89,0.00,,,0.01,0.0,meteohub,2013-11-16 23:02:00,
2013-11-16 18:07:00,68.4,64.9,30.11,ENE,72,0.0,2.0,89,0.00,,,0.01,0.0,meteohub,2013-11-16 23:07:00,
2013-11-16 18:12:00,68.2,64.8,30.11,ENE,72,0.0,2.0,89,0.00,,,0.01,0.0,meteohub,2013-11-16 23:12:00,
2013-11-16 18:17:00,68.0,64.9,30.11,ENE,72,0.0,2.0,90,0.00,,,0.01,0.0,meteohub,2013-11-16 23:17:00,
2013-11-16 18:22:00,67.8,64.8,30.11,ENE,72,0.0,2.0,90,0.00,,,0.01,0.0,meteohub,2013-11-16 23:22:00,
2013-11-16 18:27:00,67.6,64.6,30.11,ENE,72,0.0,2.0,90,0.00,,,0.01,0.0,meteohub,2013-11-16 23:27:00,
2013-11-16 18:32:00,67.5,64.8,30.11,ENE,72,0.0,2.0,91,0.00,,,0.01,0.0,meteohub,2013-11-16 23:32:00,
2013-11-16 18:37:00,67.3,64.6,30.11,ENE,72,0.0,0.0,91,0.00,,,0.01,0.0,meteohub,2013-11-16 23:37:00,
2013-11-16 18:42:00,67.1,64.4,30.11,ENE,72,0.0,0.0,91,0.00,,,0.01,0.0,meteohub,2013-11-16 23:42:00,
2013-11-16 18:47:00,66.7,64.4,30.12,ENE,72,0.0,0.0,92,0.00,,,0.01,0.0,meteohub,2013-11-16 23:47:00,
2013-11-16 18:52:00,66.6,64.2,30.12,ENE,72,0.0,0.0,92,0.00,,,0.01,0.0,meteohub,2013-11-16 23:52:00,
2013-11-16 18:57:00,66.2,63.9,30.12,ENE,72,0.0,0.0,92,0.00,,,0.01,0.0,meteohub,2013-11-16 23:57:00,
2013-11-16 19:02:00,65.8,63.7,30.12,ENE,72,0.0,0.0,93,0.00,,,0.01,0.0,meteohub,2013-11-17 00:02:00,
2013-11-16 19:07:00,65.7,63.5,30.12,ENE,72,0.0,0.0,93,0.00,,,0.01,0.0,meteohub,2013-11-17 00:07:00,
2013-11-16 19:12:00,65.3,63.5,30.12,ENE,72,0.0,0.0,94,0.00,,,0.00,0.0,meteohub,2013-11-17 00:12:00,
2013-11-16 19:17:00,64.9,63.1,30.12,ENE,72,0.0,0.0,94,0.00,,,0.00,0.0,meteohub,2013-11-17 00:17:00,
2013-11-16 19:23:00,64.8,63.0,30.12,ENE,72,0.0,0.0,94,0.00,,,0.00,0.0,meteohub,2013-11-17 00:23:00,
2013-11-16 19:29:00,64.6,62.8,30.12,ENE,72,0.0,0.0,94,0.00,,,0.00,0.0,meteohub,2013-11-17 00:29:00,
2013-11-16 19:35:00,64.2,62.8,30.12,ENE,72,0.0,0.0,95,0.00,,,0.00,0.0,meteohub,2013-11-17 00:35:00,
2013-11-16 19:41:00,64.0,62.6,30.13,ENE,72,0.0,0.0,95,0.00,,,0.00,0.0,meteohub,2013-11-17 00:41:00,
2013-11-16 19:47:00,63.9,62.4,30.13,ENE,72,0.0,0.0,95,0.00,,,0.00,0.0,meteohub,2013-11-17 00:47:00,
2013-11-16 19:54:00,63.9,62.8,30.13,ENE,72,0.0,0.0,96,0.00,,,0.00,0.0,meteohub,2013-11-17 00:54:00,
2013-11-16 20:00:00,63.9,62.8,30.13,ENE,72,0.0,2.0,96,0.00,,,0.00,0.0,meteohub,2013-11-17 01:00:00,
2013-11-16 20:06:00,64.0,63.0,30.13,ENE,60,0.0,2.0,96,0.00,,,0.00,0.0,meteohub,2013-11-17 01:06:00,
2013-11-16 20:12:00,64.0,63.0,30.13,ENE,60,0.0,2.0,96,0.00,,,0.00,0.0,meteohub,2013-11-17 01:12:00,
2013-11-16 20:17:00,64.0,63.0,30.12,ENE,60,0.0,2.0,96,0.00,,,0.00,0.0,meteohub,2013-11-17 01:17:00,
2013-11-16 20:22:00,63.9,62.8,30.13,ENE,60,0.0,1.0,96,0.00,,,0.00,0.0,meteohub,2013-11-17 01:22:00,
2013-11-16 20:27:00,63.9,62.8,30.13,ENE,60,0.0,1.0,96,0.00,,,0.00,0.0,meteohub,2013-11-17 01:27:00,
2013-11-16 20:32:00,63.9,62.8,30.13,NE,49,1.0,1.0,96,0.00,,,0.00,0.0,meteohub,2013-11-17 01:32:00,
2013-11-16 20:37:00,63.9,62.8,30.13,NE,49,0.0,1.0,96,0.00,,,0.00,0.0,meteohub,2013-11-17 01:37:00,
2013-11-16 20:42:00,63.7,62.6,30.13,NE,49,1.0,2.0,96,0.00,,,0.00,0.0,meteohub,2013-11-17 01:42:00,
2013-11-16 20:47:00,63.7,62.6,30.13,NE,49,0.0,2.0,96,0.00,,,0.00,0.0,meteohub,2013-11-17 01:47:00,
2013-11-16 20:52:00,63.5,62.4,30.13,NE,49,0.0,2.0,96,0.00,,,0.00,0.0,meteohub,2013-11-17 01:52:00,
2013-11-16 20:57:00,63.5,62.4,30.13,NE,49,1.0,2.0,96,0.00,,,0.00,0.0,meteohub,2013-11-17 01:57:00,
2013-11-16 21:02:00,63.5,62.4,30.13,NE,49,1.0,1.0,96,0.00,,,0.00,0.0,meteohub,2013-11-17 02:02:00,
2013-11-16 21:07:00,63.5,62.4,30.12,NE,49,0.0,1.0,96,0.00,,,0.00,0.0,meteohub,2013-11-17 02:07:00,
2013-11-16 21:14:00,63.5,62.4,30.13,NE,49,0.0,1.0,96,0.00,,,0.00,0.0,meteohub,2013-11-17 02:14:00,
2013-11-16 21:20:00,63.5,62.4,30.13,NE,49,0.0,1.0,96,0.00,,,0.00,0.0,meteohub,2013-11-17 02:20:00,
2013-11-16 21:26:00,63.5,62.4,30.13,NE,49,0.0,1.0,96,0.00,,,0.00,0.0,meteohub,2013-11-17 02:26:00,
2013-11-16 21:32:00,63.5,62.4,30.13,NE,49,0.0,0.0,96,0.00,,,0.00,0.0,meteohub,2013-11-17 02:32:00,
2013-11-16 21:37:00,63.5,62.4,30.13,NE,49,0.0,0.0,96,0.00,,,0.00,0.0,meteohub,2013-11-17 02:37:00,
2013-11-16 21:42:00,63.3,62.2,30.13,NE,49,0.0,0.0,96,0.00,,,0.00,0.0,meteohub,2013-11-17 02:42:00,
2013-11-16 21:47:00,63.3,62.2,30.13,NE,49,0.0,0.0,96,0.00,,,0.00,0.0,meteohub,2013-11-17 02:47:00,
2013-11-16 21:52:00,63.1,62.1,30.13,NE,49,0.0,0.0,96,0.00,,,0.00,0.0,meteohub,2013-11-17 02:52:00,
2013-11-16 21:57:00,63.1,62.1,30.13,NE,49,0.0,0.0,96,0.00,,,0.00,0.0,meteohub,2013-11-17 02:57:00,
2013-11-16 22:02:00,63.0,61.9,30.14,NE,49,0.0,0.0,96,0.00,,,0.00,0.0,meteohub,2013-11-17 03:02:00,
2013-11-16 22:07:00,63.0,62.1,30.13,NE,49,0.0,0.0,97,0.00,,,0.00,0.0,meteohub,2013-11-17 03:07:00,
2013-11-16 22:13:00,63.0,62.1,30.14,NE,49,0.0,0.0,97,0.00,,,0.00,0.0,meteohub,2013-11-17 03:13:00,
2013-11-16 22:19:00,63.0,62.1,30.13,NE,49,0.0,0.0,97,0.00,,,0.00,0.0,meteohub,2013-11-17 03:19:00,
2013-11-16 22:25:00,63.0,62.1,30.13,NE,49,0.0,0.0,97,0.00,,,0.00,0.0,meteohub,2013-11-17 03:25:00,
2013-11-16 22:32:00,62.8,61.9,30.13,NE,49,0.0,0.0,97,0.00,,,0.00,0.0,meteohub,2013-11-17 03:32:00,
2013-11-16 22:37:00,62.8,61.9,30.13,NE,49,0.0,0.0,97,0.00,,,0.00,0.0,meteohub,2013-11-17 03:37:00,
2013-11-16 22:42:00,62.8,61.9,30.13,NE,49,0.0,0.0,97,0.00,,,0.00,0.0,meteohub,2013-11-17 03:42:00,
2013-11-16 22:47:00,63.0,62.1,30.14,NE,49,0.0,0.0,97,0.00,,,0.00,0.0,meteohub,2013-11-17 03:47:00,
2013-11-16 22:52:00,63.0,62.1,30.14,NE,49,0.0,0.0,97,0.00,,,0.00,0.0,meteohub,2013-11-17 03:52:00,
2013-11-16 22:57:00,63.0,62.1,30.14,NE,49,0.0,0.0,97,0.00,,,0.00,0.0,meteohub,2013-11-17 03:57:00,
2013-11-16 23:02:00,63.1,62.2,30.14,NE,49,0.0,1.0,97,0.00,,,0.00,0.0,meteohub,2013-11-17 04:02:00,
2013-11-16 23:07:00,63.1,62.2,30.14,NE,49,0.0,1.0,97,0.00,,,0.00,0.0,meteohub,2013-11-17 04:07:00,
2013-11-16 23:12:00,63.1,62.2,30.14,NE,49,0.0,1.0,97,0.00,,,0.00,0.0,meteohub,2013-11-17 04:12:00,
2013-11-16 23:17:00,63.3,62.4,30.14,NE,49,0.0,1.0,97,0.00,,,0.00,0.0,meteohub,2013-11-17 04:17:00,
2013-11-16 23:22:00,63.3,62.4,30.14,NE,49,0.0,0.0,97,0.00,,,0.00,0.0,meteohub,2013-11-17 04:22:00,
2013-11-16 23:27:00,63.3,62.4,30.14,NE,49,0.0,0.0,97,0.00,,,0.00,0.0,meteohub,2013-11-17 04:27:00,
2013-11-16 23:32:00,63.3,62.4,30.14,NE,49,0.0,0.0,97,0.00,,,0.00,0.0,meteohub,2013-11-17 04:32:00,
2013-11-16 23:37:00,63.3,62.4,30.14,NE,49,0.0,0.0,97,0.00,,,0.00,0.0,meteohub,2013-11-17 04:37:00,
2013-11-16 23:42:00,63.3,62.4,30.14,NE,49,0.0,0.0,97,0.00,,,0.00,0.0,meteohub,2013-11-17 04:42:00,
2013-11-16 23:47:00,63.3,62.4,30.14,NE,49,0.0,0.0,97,0.00,,,0.00,0.0,meteohub,2013-11-17 04:47:00,
2013-11-16 23:52:00,63.3,62.4,30.13,NE,49,0.0,0.0,97,0.00,,,0.00,0.0,meteohub,2013-11-17 04:52:00,
2013-11-16 23:57:00,63.3,62.4,30.13,NE,49,0.0,0.0,97,0.00,,,0.00,0.0,meteohub,2013-11-17 04:57:00,